Location: Eindhoven
(51.4416°N, 5.4697°E)
Time: 04:19:28
(UTC+01:00)

Vanguard 2 - All Passes

Search period start: 21 November 2019 00:00
Search period end: 01 December 2019 00:00
Orbit: 554 x 2937 km, 32.9° (Epoch: 20 November)

Date Brightness Start Highest point End Pass type
(mag) Time Alt. Az. Time Alt. Az. Time Alt. Az.
21 Nov - 07:57:10 10° SSW 08:03:12 16° SSE 08:07:58 10° SE daylight
21 Nov - 10:05:48 10° SW 10:11:11 18° S 10:15:19 10° SSE daylight
22 Nov - 06:08:52 10° S 06:12:19 11° SSE 06:15:24 10° SE visible
22 Nov - 08:13:37 10° SSW 08:20:51 19° S 08:26:16 10° SE daylight
22 Nov - 10:23:18 10° SW 10:28:44 18° SSW 10:32:52 10° SSE daylight
23 Nov - 06:23:11 10° S 06:29:55 15° SSE 06:35:24 10° SE visible
23 Nov - 08:30:32 10° SW 08:38:28 22° S 08:44:15 10° SE daylight
23 Nov - 10:41:02 10° SW 10:46:12 17° SSW 10:50:12 10° SSE daylight
24 Nov - 06:38:57 10° SSW 06:47:32 19° SSE 06:54:09 10° ESE visible
24 Nov - 08:47:43 10° SW 08:56:04 23° S 09:02:01 10° SE daylight
24 Nov - 10:59:01 10° SW 11:03:37 15° SSW 11:07:17 10° S daylight
25 Nov - 04:50:46 10° S 04:56:13 13° SSE 05:01:02 10° SE visible
25 Nov - 06:55:22 10° SSW 07:05:09 23° SSE 07:12:25 10° ESE visible
25 Nov - 09:05:08 10° SW 09:13:38 24° S 09:19:39 10° SE daylight
25 Nov - 11:17:23 10° SW 11:20:57 13° SSW 11:23:57 10° S daylight
26 Nov - 05:05:11 10° S 05:13:44 17° SSE 05:20:51 10° ESE visible
26 Nov - 07:12:10 10° SW 07:22:47 26° S 07:30:24 10° ESE visible
26 Nov - 09:22:44 10° WSW 09:31:09 24° SSW 09:37:07 10° SE daylight
26 Nov - 11:36:50 10° SW 11:38:13 10° SW 11:39:30 10° SSW daylight
27 Nov - 05:20:49 10° SSW 05:31:17 21° SSE 05:39:36 10° ESE visible
27 Nov - 07:29:16 10° SW 07:40:23 28° S 07:48:13 10° SE visible
27 Nov - 09:40:31 10° WSW 09:48:36 22° SSW 09:54:25 10° SSE daylight
28 Nov - 03:33:39 10° SSE 03:39:41 13° SE 03:45:13 10° ESE visible
28 Nov - 05:37:05 10° SSW 05:48:52 25° SSE 05:57:55 10° ESE visible
28 Nov - 07:46:36 10° SW 07:57:58 29° S 08:05:53 10° SE daylight
28 Nov - 09:58:29 10° WSW 10:05:58 20° SSW 10:11:30 10° SSE daylight
29 Nov - 03:47:42 10° S 03:57:06 17° SSE 04:05:19 10° ESE visible
29 Nov - 05:53:46 10° SW 06:06:27 29° SSE 06:15:58 10° ESE visible
29 Nov - 08:04:06 10° WSW 08:15:30 30° S 08:23:26 10° SE daylight
29 Nov - 10:16:42 10° WSW 10:23:15 17° SSW 10:28:18 10° S daylight
30 Nov - 04:03:06 10° SSW 04:14:32 22° SSE 04:24:14 10° ESE visible
30 Nov - 06:10:45 10° SW 06:24:02 31° S 06:33:50 10° ESE visible
30 Nov - 08:21:46 10° WSW 08:32:59 29° SSW 08:40:51 10° SE daylight
30 Nov - 10:35:22 10° WSW 10:40:27 14° SW 10:44:37 10° S daylight
